WESTFORD NEEDLES *

Satellite information

Favourite Embed

Satellite Type and Status

DEBRISIN ORBIT

Key statistics

Satellite WESTFORD NEEDLES * at a glance.

Uptime

22646

Days in orbit

Revolutions

≈ 11.3

Per day

Orbit

HEO

HEO

Inclination

88.4

Latest

Satellite identification and parameters

Extended collection of information and parameters for WESTFORD NEEDLES *.

Object identification

Identified? True

Debris? False

Object name: WESTFORD NEEDLES *

International designator: 1963-014CF

Object number (NORAD): 3267

Object ID (CCSDS): 3267

Country: UNITED STATES OF AMERICA (US)

Current information (Y/N): Y

RCS size: SMALL

Orbital parameters

Period: 126.999 minutes

Inclination: 88.387 deg

SMA: 8369.39 km

Apoapsis: 3403.798 km

Periapsis: 578.712 km

RAAN: 127.7102 deg

Eccentricy: 0.1687749

Argument of periapsis: 239.9841 deg

Mean anomaly: 102.3289 deg

Mean motion: 11.3386677 rev/day

Mean motion (dot): 0.00000208 rev/day2

B* drag term: 0.0001503 1/REarth

Two-line elements (TLE)

Creation date: May 6, 2025, 3:54 a.m.

Reference frame: TEME

Reference center: EARTH

Epoch: May 5, 2025, 5:03 p.m. UTC

TLE line 0: 0 WESTFORD NEEDLES *

TLE line 1: 1 03267U 63014CF 25125.71064737 .00000208 00000-0 15030-3 0 9994

TLE line 2: 2 03267 88.3870 127.7102 1687749 239.9841 102.3289 11.33866770496154

Live tracking on map

Real-time ground track for satellite WESTFORD NEEDLES *.

In-orbit conjunctions

A list of the most updated potential collisions computed for object WESTFORD NEEDLES *.

Target Orbit TCA Probability of collision Miss distance Type
CZ-6A DEB LEO 2025-01-13 09:43:27 0.0001431173 633.0 (m) DEBRIS

Associated space launch

MIDAS Series 3 (Military Defense Alarm System) early warning satellite.

WESTFORD NEEDLES * was lifted into orbit during the mission ‘Atlas Agena B | Midas 7’, on board a Atlas Agena B space rocket.

The launch took place on May 9, 1963, 8:06 p.m. from Space Launch Complex 3E.

For more information about the launch, click the button.

Launch to space Atlas Agena B | Midas 7
Atlas Agena B | Midas 7

Agency: N/A

Status: Launch Successful

Launch date: May 9, 1963, 8:06 p.m. UTC

Rocket: Atlas Agena B

Launch pad: Space Launch Complex 3E

Location: Vandenberg SFB, CA, USA

...

Latest news about this satellite

There are no fresh news available about this satellite. Check back as we update our databases every day.


Newsletter sign-up

Weekly statistics, charts and insights to help you stay on top of the space industry.